QPF
0.00 0.00 0.00 0.00 0.00 0.00 0.00 0.00 0.00 0.00 0.00 0.01 0.01 0.01 0.01 0.01 0.01 0.01 0.01 0.01 0.01 0.01 0.01 0.02 0.01 0.01 0.01 0.01 0.01 0.01 0.01 0.02 0.05 0.08 0.13 0.17 0.19 0.18 0.13 0.11 0.13 0.09 0.05 0.04
0.00 0.00 0.00 0.00 0.00 0.00 0.01 0.01 0.00 0.00 0.00 0.01 0.01 0.01 0.01 0.01 0.01 0.01 0.01 0.01 0.01 0.01 0.02 0.03 0.03 0.02 0.01 0.01 0.01 0.01 0.01 0.02 0.03 0.05 0.08 0.13 0.14 0.18 0.20 0.17 0.14 0.15 0.11 0.07
0.00 0.00 0.00 0.00 0.00 0.00 0.00 0.00 0.00 0.01 0.01 0.01 0.02 0.02 0.02 0.01 0.01 0.01 0.01 0.02 0.02 0.02 0.02 0.03 0.04 0.03 0.02 0.01 0.01 0.01 0.01 0.02 0.03 0.05 0.06 0.08 0.11 0.13 0.14 0.15 0.16 0.18 0.15 0.12
0.00 0.01 0.00 0.00 0.00 0.01 0.01 0.00 0.01 0.01 0.01 0.02 0.02 0.02 0.02 0.01 0.01 0.01 0.01 0.02 0.02 0.02 0.02 0.03 0.03 0.03 0.03 0.01 0.01 0.01 0.01 0.02 0.03 0.05 0.06 0.07 0.09 0.09 0.08 0.07 0.09 0.14 0.15 0.14
0.00 0.00 0.00 0.00 0.00 0.00 0.00 0.00 0.01 0.01 0.02 0.03 0.02 0.02 0.02 0.01 0.01 0.01 0.01 0.02 0.03 0.03 0.03 0.03 0.03 0.03 0.03 0.02 0.02 0.02 0.02 0.02 0.03 0.05 0.06 0.07 0.07 0.07 0.06 0.06 0.06 0.08 0.12 0.15
0.00 0.00 0.00 0.00 0.01 0.00 0.00 0.01 0.01 0.02 0.02 0.03 0.02 0.02 0.02 0.01 0.01 0.01 0.01 0.02 0.03 0.04 0.03 0.02 0.03 0.04 0.04 0.03 0.03 0.02 0.02 0.02 0.03 0.05 0.05 0.06 0.06 0.06 0.06 0.05 0.07 0.08 0.08 0.11
0.00 0.00 0.00 0.00 0.00 0.00 0.01 0.01 0.01 0.02 0.02 0.02 0.01 0.01 0.01 0.01 0.01 0.01 0.03 0.03 0.02 0.04 0.04 0.03 0.03 0.03 0.04 0.04 0.03 0.03 0.02 0.02 0.03 0.04 0.05 0.05 0.05 0.05 0.06 0.06 0.07 0.08 0.08 0.09
0.00 0.00 0.00 0.00 0.00 0.00 0.01 0.01 0.01 0.01 0.02 0.02 0.01 0.01 0.01 0.01 0.01 0.01 0.03 0.03 0.03 0.03 0.05 0.06 0.04 0.03 0.03 0.04 0.04 0.03 0.03 0.03 0.03 0.04 0.05 0.05 0.05 0.05 0.04 0.04 0.05 0.07 0.07 0.07
0.00 0.00 0.00 0.00 0.00 0.00 0.01 0.01 0.01 0.02 0.02 0.02 0.01 0.01 0.01 0.01 0.01 0.01 0.03 0.03 0.03 0.04 0.05 0.07 0.06 0.04 0.04 0.04 0.05 0.05 0.04 0.04 0.04 0.05 0.05 0.06 0.05 0.05 0.05 0.04 0.04 0.06 0.06 0.07
0.00 0.00 0.00 0.00 0.00 0.01 0.01 0.01 0.01 0.01 0.02 0.02 0.02 0.01 0.01 0.01 0.01 0.01 0.03 0.03 0.03 0.05 0.05 0.05 0.05 0.05 0.05 0.05 0.06 0.08 0.06 0.05 0.05 0.05 0.05 0.06 0.06 0.06 0.06 0.05 0.04 0.04 0.06 0.06
0.00 0.00 0.00 0.00 0.00 0.00 0.00 0.01 0.01 0.01 0.01 0.02 0.02 0.01 0.01 0.01 0.02 0.02 0.03 0.03 0.03 0.04 0.05 0.05 0.05 0.05 0.04 0.04 0.05 0.07 0.10 0.08 0.06 0.05 0.06 0.06 0.08 0.07 0.07 0.07 0.06 0.04 0.05 0.06
0.00 0.00 0.01 0.00 0.00 0.00 0.00 0.00 0.01 0.01 0.02 0.02 0.01 0.01 0.01 0.01 0.01 0.02 0.02 0.03 0.02 0.03 0.04 0.04 0.04 0.04 0.04 0.04 0.04 0.05 0.07 0.11 0.09 0.07 0.07 0.06 0.07 0.09 0.09 0.09 0.08 0.07 0.06 0.06
0.00 0.01 0.01 0.00 0.00 0.01 0.01 0.01 0.01 0.01 0.02 0.02 0.01 0.01 0.01 0.01 0.01 0.01 0.02 0.02 0.04 0.03 0.03 0.04 0.04 0.04 0.04 0.04 0.04 0.04 0.05 0.08 0.11 0.11 0.09 0.08 0.07 0.08 0.09 0.08 0.08 0.07 0.07 0.08
0.01 0.01 0.00 0.00 0.00 0.01 0.01 0.01 0.01 0.01 0.01 0.01 0.01 0.01 0.01 0.01 0.01 0.01 0.01 0.02 0.04 0.04 0.03 0.04 0.04 0.05 0.04 0.04 0.03 0.03 0.04 0.04 0.06 0.10 0.10 0.10 0.09 0.08 0.08 0.08 0.07 0.06 0.06 0.06
0.01 0.01 0.00 0.00 0.00 0.01 0.01 0.00 0.00 0.01 0.00 0.01 0.01 0.01 0.01 0.01 0.01 0.01 0.01 0.01 0.02 0.02 0.02 0.03 0.04 0.04 0.04 0.03 0.03 0.03 0.03 0.04 0.04 0.06 0.08 0.10 0.10 0.11 0.11 0.10 0.08 0.06 0.05 0.05
0.02 0.02 0.01 0.00 0.00 0.00 0.00 0.00 0.00 0.00 0.00 0.00 0.00 0.00 0.01 0.01 0.01 0.01 0.01 0.01 0.01 0.01 0.01 0.01 0.02 0.02 0.03 0.03 0.03 0.03 0.03 0.03 0.04 0.04 0.06 0.08 0.09 0.09 0.12 0.13 0.11 0.09 0.06 0.05
0.02 0.01 0.01 0.01 0.00 0.00 0.00 0.00 0.00 0.00 0.00 0.00 0.00 0.00 0.00 0.00 0.00 0.00 0.00 0.00 0.01 0.01 0.01 0.01 0.01 0.02 0.02 0.02 0.03 0.03 0.03 0.03 0.03 0.04 0.05 0.08 0.09 0.08 0.09 0.12 0.14 0.11 0.08 0.06
0.02 0.02 0.02 0.01 0.00 0.00 0.00 0.00 0.00 0.00 0.00 0.00 0.00 0.00 0.00 0.00 0.00 0.00 0.00 0.00 0.00 0.00 0.00 0.01 0.01 0.01 0.01 0.02 0.02 0.02 0.02 0.02 0.03 0.03 0.04 0.07 0.08 0.07 0.07 0.10 0.11 0.09 0.08 0.07
0.01 0.02 0.03 0.02 0.01 0.00 0.00 0.00 0.00 0.00 0.00 0.00 0.00 0.00 0.00 0.00 0.00 0.00 0.00 0.00 0.01 0.01 0.01 0.01 0.01 0.01 0.01 0.02 0.02 0.02 0.02 0.02 0.03 0.03 0.03 0.04 0.08 0.08 0.06 0.09 0.09 0.07 0.07 0.07
0.01 0.02 0.03 0.02 0.01 0.00 0.00 0.01 0.01 0.01 0.00 0.00 0.00 0.00 0.00 0.00 0.00 0.00 0.00 0.00 0.00 0.00 0.01 0.01 0.01 0.01 0.01 0.02 0.02 0.03 0.02 0.02 0.02 0.03 0.03 0.04 0.06 0.08 0.09 0.10 0.09 0.06 0.06 0.06
0.01 0.02 0.02 0.02 0.02 0.01 0.00 0.00 0.01 0.01 0.01 0.01 0.01 0.01 0.01 0.01 0.00 0.00 0.00 0.00 0.00 0.00 0.00 0.01 0.01 0.01 0.01 0.02 0.03 0.03 0.03 0.02 0.02 0.02 0.03 0.04 0.05 0.07 0.09 0.11 0.10 0.07 0.06 0.06
0.01 0.02 0.02 0.02 0.03 0.01 0.01 0.01 0.01 0.01 0.01 0.01 0.01 0.01 0.01 0.00 0.00 0.00 0.00 0.00 0.00 0.00 0.00 0.01 0.01 0.01 0.02 0.02 0.03 0.03 0.03 0.02 0.02 0.02 0.03 0.04 0.05 0.06 0.07 0.10 0.11 0.08 0.07 0.07
0.01 0.01 0.02 0.02 0.01 0.01 0.01 0.01 0.01 0.01 0.01 0.01 0.01 0.01 0.01 0.01 0.00 0.00 0.00 0.00 0.00 0.00 0.00 0.01 0.01 0.01 0.01 0.01 0.02 0.03 0.03 0.02 0.02 0.02 0.03 0.04 0.05 0.05 0.07 0.07 0.09 0.09 0.07 0.07
0.01 0.01 0.02 0.02 0.01 0.01 0.01 0.01 0.01 0.01 0.02 0.02 0.02 0.01 0.01 0.01 0.01 0.00 0.00 0.00 0.00 0.00 0.01 0.01 0.01 0.01 0.01 0.01 0.01 0.02 0.03 0.03 0.02 0.02 0.03 0.03 0.04 0.05 0.06 0.07 0.09 0.09 0.08 0.06
0.01 0.01 0.02 0.02 0.01 0.01 0.01 0.01 0.01 0.01 0.02 0.01 0.01 0.01 0.01 0.01 0.01 0.00 0.00 0.00 0.00 0.01 0.01 0.01 0.01 0.01 0.01 0.02 0.01 0.02 0.02 0.03 0.03 0.02 0.03 0.03 0.03 0.04 0.05 0.06 0.08 0.08 0.08 0.08
0.01 0.01 0.02 0.02 0.01 0.02 0.01 0.01 0.01 0.01 0.01 0.01 0.01 0.01 0.01 0.01 0.01 0.01 0.00 0.00 0.00 0.01 0.01 0.01 0.01 0.01 0.01 0.02 0.02 0.02 0.02 0.03 0.03 0.03 0.02 0.02 0.03 0.03 0.04 0.04 0.05 0.07 0.08 0.08
MSLP
1024.23 1024.16 1024.23 1024.43 1024.67 1024.89 1025.00 1024.95 1024.70 1024.29 1023.77 1023.20 1022.67 1022.25 1021.97 1021.82 1021.79 1021.80 1021.81 1021.77 1021.64 1021.43 1021.16 1020.89 1020.64 1020.44 1020.29 1020.14 1019.93 1019.58 1019.04 1018.26 1017.25 1016.08 1014.84 1013.64 1012.61 1011.86 1011.47 1011.44 1011.75 1012.31 1013.05 1013.87
1024.63 1024.67 1024.88 1025.18 1025.51 1025.77 1025.87 1025.77 1025.44 1024.92 1024.29 1023.63 1023.05 1022.60 1022.34 1022.26 1022.30 1022.40 1022.47 1022.46 1022.32 1022.05 1021.68 1021.26 1020.85 1020.50 1020.20 1019.94 1019.67 1019.30 1018.77 1018.04 1017.10 1015.99 1014.80 1013.63 1012.61 1011.85 1011.42 1011.34 1011.59 1012.12 1012.83 1013.64
1025.12 1025.31 1025.65 1026.07 1026.46 1026.72 1026.77 1026.56 1026.08 1025.39 1024.60 1023.81 1023.14 1022.67 1022.45 1022.46 1022.64 1022.90 1023.11 1023.21 1023.12 1022.84 1022.39 1021.83 1021.24 1020.68 1020.19 1019.77 1019.37 1018.95 1018.42 1017.74 1016.89 1015.88 1014.78 1013.69 1012.71 1011.95 1011.49 1011.36 1011.54 1012.00 1012.65 1013.42
1025.59 1025.95 1026.44 1026.95 1027.38 1027.61 1027.56 1027.18 1026.50 1025.59 1024.58 1023.61 1022.83 1022.32 1022.14 1022.27 1022.64 1023.10 1023.54 1023.82 1023.87 1023.64 1023.16 1022.50 1021.74 1020.98 1020.28 1019.66 1019.11 1018.61 1018.07 1017.44 1016.68 1015.80 1014.84 1013.85 1012.95 1012.21 1011.73 1011.54 1011.64 1012.00 1012.56 1013.26
1025.93 1026.47 1027.09 1027.69 1028.14 1028.32 1028.14 1027.58 1026.66 1025.49 1024.24 1023.06 1022.13 1021.56 1021.41 1021.66 1022.22 1022.93 1023.63 1024.16 1024.41 1024.32 1023.89 1023.18 1022.30 1021.36 1020.46 1019.65 1018.96 1018.36 1017.80 1017.22 1016.57 1015.83 1015.00 1014.15 1013.33 1012.63 1012.13 1011.87 1011.87 1012.11 1012.57 1013.16
1026.10 1026.78 1027.52 1028.19 1028.65 1028.78 1028.49 1027.75 1026.60 1025.19 1023.68 1022.29 1021.20 1020.54 1020.39 1020.75 1021.48 1022.43 1023.40 1024.21 1024.70 1024.79 1024.47 1023.79 1022.86 1021.81 1020.75 1019.79 1018.96 1018.27 1017.69 1017.15 1016.60 1015.99 1015.31 1014.59 1013.86 1013.19 1012.67 1012.33 1012.22 1012.33 1012.64 1013.12
1026.08 1026.88 1027.71 1028.43 1028.91 1029.01 1028.63 1027.75 1026.43 1024.82 1023.12 1021.53 1020.28 1019.53 1019.35 1019.75 1020.60 1021.74 1022.94 1024.00 1024.74 1025.04 1024.88 1024.28 1023.37 1022.28 1021.14 1020.07 1019.15 1018.39 1017.79 1017.29 1016.82 1016.32 1015.76 1015.14 1014.49 1013.85 1013.29 1012.87 1012.63 1012.60 1012.76 1013.11
1025.95 1026.80 1027.67 1028.44 1028.94 1029.04 1028.63 1027.70 1026.30 1024.58 1022.74 1021.02 1019.65 1018.79 1018.54 1018.92 1019.82 1021.05 1022.40 1023.65 1024.59 1025.10 1025.10 1024.64 1023.81 1022.74 1021.59 1020.48 1019.51 1018.71 1018.10 1017.62 1017.20 1016.79 1016.32 1015.78 1015.17 1014.54 1013.94 1013.43 1013.06 1012.88 1012.89 1013.09
1025.78 1026.62 1027.50 1028.28 1028.81 1028.94 1028.58 1027.68 1026.30 1024.57 1022.71 1020.93 1019.47 1018.52 1018.17 1018.47 1019.32 1020.54 1021.93 1023.26 1024.33 1024.99 1025.15 1024.84 1024.13 1023.15 1022.05 1020.96 1019.98 1019.18 1018.57 1018.10 1017.71 1017.34 1016.92 1016.43 1015.84 1015.20 1014.55 1013.96 1013.47 1013.14 1013.01 1013.07
1025.66 1026.42 1027.26 1028.03 1028.58 1028.78 1028.51 1027.72 1026.45 1024.83 1023.03 1021.29 1019.81 1018.78 1018.32 1018.48 1019.19 1020.30 1021.62 1022.92 1024.02 1024.75 1025.04 1024.86 1024.29 1023.44 1022.44 1021.42 1020.49 1019.71 1019.10 1018.64 1018.27 1017.91 1017.52 1017.04 1016.46 1015.81 1015.11 1014.44 1013.85 1013.39 1013.12 1013.04
1025.64 1026.27 1027.00 1027.72 1028.28 1028.54 1028.39 1027.76 1026.68 1025.24 1023.60 1021.96 1020.51 1019.45 1018.88 1018.88 1019.39 1020.30 1021.44 1022.62 1023.65 1024.39 1024.74 1024.68 1024.26 1023.56 1022.70 1021.79 1020.94 1020.21 1019.63 1019.18 1018.80 1018.44 1018.05 1017.57 1017.00 1016.33 1015.61 1014.88 1014.21 1013.66 1013.27 1013.06
1025.69 1026.15 1026.75 1027.37 1027.90 1028.18 1028.13 1027.67 1026.79 1025.57 1024.14 1022.66 1021.30 1020.24 1019.60 1019.43 1019.73 1020.39 1021.30 1022.29 1023.19 1023.88 1024.26 1024.30 1024.01 1023.48 1022.78 1022.02 1021.28 1020.63 1020.09 1019.64 1019.26 1018.90 1018.50 1018.02 1017.45 1016.79 1016.06 1015.32 1014.61 1013.99 1013.51 1013.20
1025.75 1026.04 1026.46 1026.94 1027.37 1027.63 1027.62 1027.28 1026.58 1025.58 1024.36 1023.07 1021.84 1020.83 1020.14 1019.85 1019.95 1020.38 1021.05 1021.83 1022.59 1023.20 1023.59 1023.71 1023.56 1023.20 1022.68 1022.09 1021.49 1020.93 1020.44 1020.02 1019.64 1019.27 1018.87 1018.40 1017.85 1017.21 1016.51 1015.79 1015.08 1014.45 1013.91 1013.52
1025.74 1025.85 1026.08 1026.37 1026.63 1026.79 1026.74 1026.45 1025.87 1025.04 1024.02 1022.91 1021.84 1020.91 1020.24 1019.87 1019.83 1020.08 1020.56 1021.16 1021.79 1022.35 1022.75 1022.95 1022.95 1022.77 1022.44 1022.03 1021.58 1021.13 1020.71 1020.32 1019.96 1019.59 1019.19 1018.73 1018.21 1017.63 1016.99 1016.33 1015.67 1015.05 1014.52 1014.08
1025.58 1025.52 1025.54 1025.60 1025.65 1025.62 1025.46 1025.11 1024.57 1023.84 1022.97 1022.04 1021.12 1020.32 1019.71 1019.35 1019.25 1019.40 1019.76 1020.26 1020.81 1021.35 1021.79 1022.10 1022.26 1022.26 1022.13 1021.90 1021.61 1021.28 1020.93 1020.59 1020.24 1019.87 1019.49 1019.06 1018.59 1018.07 1017.52 1016.94 1016.37 1015.82 1015.32 1014.88
1025.21 1025.00 1024.81 1024.62 1024.41 1024.14 1023.78 1023.31 1022.72 1022.02 1021.25 1020.46 1019.70 1019.05 1018.55 1018.27 1018.20 1018.35 1018.68 1019.15 1019.70 1020.27 1020.80 1021.24 1021.56 1021.75 1021.82 1021.78 1021.64 1021.43 1021.17 1020.86 1020.53 1020.18 1019.81 1019.41 1018.99 1018.55 1018.09 1017.63 1017.16 1016.71 1016.28 1015.88
1024.61 1024.27 1023.89 1023.44 1022.96 1022.41 1021.82 1021.17 1020.47 1019.75 1019.04 1018.35 1017.75 1017.26 1016.92 1016.76 1016.80 1017.03 1017.42 1017.94 1018.55 1019.20 1019.85 1020.44 1020.93 1021.32 1021.58 1021.71 1021.73 1021.63 1021.44 1021.18 1020.87 1020.53 1020.17 1019.80 1019.43 1019.06 1018.70 1018.34 1018.00 1017.66 1017.32 1016.99
1023.78 1023.34 1022.78 1022.11 1021.37 1020.57 1019.73 1018.89 1018.08 1017.31 1016.62 1016.02 1015.55 1015.23 1015.06 1015.08 1015.27 1015.62 1016.13 1016.76 1017.47 1018.24 1019.02 1019.76 1020.43 1021.00 1021.43 1021.73 1021.88 1021.89 1021.78 1021.56 1021.27 1020.94 1020.58 1020.23 1019.89 1019.58 1019.30 1019.05 1018.82 1018.59 1018.36 1018.13
1022.75 1022.22 1021.52 1020.68 1019.74 1018.73 1017.71 1016.71 1015.79 1014.99 1014.31 1013.80 1013.45 1013.28 1013.29 1013.47 1013.82 1014.33 1014.96 1015.71 1016.55 1017.44 1018.35 1019.23 1020.05 1020.77 1021.37 1021.81 1022.08 1022.19 1022.15 1021.98 1021.71 1021.39 1021.04 1020.70 1020.38 1020.11 1019.89 1019.72 1019.58 1019.45 1019.33 1019.19
1021.56 1020.95 1020.16 1019.21 1018.14 1017.01 1015.88 1014.80 1013.83 1013.02 1012.38 1011.94 1011.71 1011.67 1011.82 1012.16 1012.64 1013.27 1014.02 1014.87 1015.81 1016.80 1017.81 1018.81 1019.75 1020.60 1021.32 1021.88 1022.27 1022.48 1022.51 1022.39 1022.16 1021.86 1021.52 1021.18 1020.88 1020.64 1020.46 1020.34 1020.26 1020.22 1020.18 1020.12
1020.22 1019.56 1018.73 1017.74 1016.64 1015.48 1014.33 1013.25 1012.30 1011.53 1010.95 1010.60 1010.46 1010.53 1010.79 1011.22 1011.80 1012.51 1013.33 1014.24 1015.23 1016.28 1017.36 1018.43 1019.46 1020.40 1021.23 1021.90 1022.39 1022.69 1022.81 1022.76 1022.58 1022.31 1022.00 1021.68 1021.40 1021.17 1021.02 1020.93 1020.89 1020.90 1020.92 1020.93
1018.78 1018.10 1017.27 1016.30 1015.25 1014.16 1013.08 1012.08 1011.21 1010.52 1010.03 1009.76 1009.70 1009.83 1010.15 1010.64 1011.25 1011.99 1012.82 1013.75 1014.75 1015.81 1016.91 1018.02 1019.10 1020.12 1021.02 1021.78 1022.37 1022.78 1022.99 1023.03 1022.93 1022.73 1022.46 1022.18 1021.93 1021.72 1021.58 1021.51 1021.50 1021.53 1021.58 1021.62
1017.29 1016.61 1015.82 1014.95 1014.00 1013.04 1012.09 1011.23 1010.48 1009.90 1009.50 1009.30 1009.29 1009.47 1009.80 1010.29 1010.89 1011.60 1012.41 1013.31 1014.28 1015.32 1016.42 1017.53 1018.64 1019.70 1020.67 1021.51 1022.20 1022.71 1023.03 1023.18 1023.18 1023.07 1022.89 1022.67 1022.46 1022.29 1022.17 1022.11 1022.11 1022.15 1022.21 1022.27
1015.84 1015.18 1014.47 1013.71 1012.91 1012.10 1011.32 1010.60 1009.99 1009.52 1009.20 1009.04 1009.06 1009.23 1009.55 1009.99 1010.55 1011.21 1011.97 1012.82 1013.75 1014.75 1015.82 1016.93 1018.05 1019.14 1020.17 1021.09 1021.87 1022.49 1022.93 1023.21 1023.33 1023.33 1023.25 1023.12 1022.98 1022.86 1022.78 1022.74 1022.74 1022.78 1022.84 1022.90
1014.55 1013.94 1013.32 1012.67 1012.00 1011.34 1010.70 1010.11 1009.60 1009.20 1008.92 1008.78 1008.79 1008.93 1009.20 1009.60 1010.10 1010.70 1011.41 1012.21 1013.10 1014.08 1015.13 1016.24 1017.37 1018.49 1019.56 1020.55 1021.42 1022.15 1022.71 1023.11 1023.37 1023.51 1023.55 1023.53 1023.48 1023.42 1023.39 1023.38 1023.40 1023.44 1023.49 1023.54
1013.55 1013.00 1012.46 1011.90 1011.33 1010.76 1010.20 1009.67 1009.20 1008.81 1008.53 1008.36 1008.33 1008.41 1008.63 1008.97 1009.43 1010.00 1010.68 1011.47 1012.35 1013.33 1014.39 1015.51 1016.66 1017.81 1018.93 1019.97 1020.92 1021.74 1022.41 1022.93 1023.32 1023.59 1023.75 1023.85 1023.90 1023.93 1023.96 1024.00 1024.04 1024.09 1024.14 1024.18
Thickness
5544 5546 5539 5531 5524 5523 5519 5519 5521 5517 5505 5501 5508 5509 5507 5500 5492 5491 5490 5488 5487 5486 5484 5483 5483 5483 5485 5487 5490 5493 5496 5499 5503 5508 5513 5516 5520 5523 5525 5527 5531 5534 5539 5544
5540 5530 5518 5511 5507 5506 5506 5507 5509 5504 5492 5490 5494 5496 5496 5488 5481 5477 5476 5474 5473 5472 5471 5470 5471 5472 5473 5475 5477 5480 5483 5486 5489 5494 5498 5501 5505 5509 5513 5515 5519 5523 5527 5532
5529 5513 5501 5500 5498 5497 5498 5496 5495 5488 5485 5480 5478 5499 5491 5480 5471 5466 5463 5461 5459 5458 5458 5458 5458 5459 5461 5463 5465 5468 5470 5473 5477 5481 5485 5489 5493 5497 5501 5505 5509 5512 5516 5521
5508 5495 5491 5491 5488 5483 5492 5478 5472 5469 5473 5485 5470 5493 5494 5471 5464 5459 5455 5450 5448 5445 5444 5445 5446 5447 5448 5450 5452 5455 5458 5461 5465 5468 5472 5477 5481 5486 5490 5494 5498 5502 5506 5511
5498 5484 5481 5481 5475 5470 5472 5461 5458 5457 5458 5461 5460 5461 5487 5459 5458 5453 5446 5441 5436 5433 5433 5433 5433 5434 5435 5436 5439 5442 5445 5449 5452 5455 5460 5464 5469 5474 5477 5483 5487 5492 5496 5500
5480 5470 5467 5465 5459 5456 5452 5452 5449 5448 5452 5459 5454 5453 5475 5460 5446 5441 5434 5429 5424 5422 5421 5421 5421 5422 5423 5424 5426 5429 5433 5436 5440 5443 5448 5452 5457 5461 5466 5472 5477 5482 5486 5490
5477 5464 5453 5449 5453 5449 5445 5454 5468 5469 5467 5470 5434 5435 5454 5436 5425 5420 5417 5415 5412 5409 5409 5410 5410 5410 5412 5413 5414 5417 5420 5424 5427 5431 5436 5439 5444 5449 5455 5460 5466 5471 5476 5480
5474 5473 5447 5438 5439 5438 5434 5438 5450 5456 5467 5464 5429 5438 5446 5419 5410 5405 5402 5401 5400 5398 5398 5398 5398 5398 5399 5400 5402 5405 5407 5411 5415 5419 5424 5428 5432 5437 5443 5448 5454 5459 5464 5468
5462 5459 5432 5424 5420 5423 5424 5425 5414 5419 5413 5417 5441 5433 5425 5411 5403 5398 5395 5393 5390 5388 5386 5386 5386 5386 5387 5388 5389 5392 5395 5399 5402 5406 5411 5416 5420 5426 5431 5436 5442 5447 5451 5456
5438 5437 5427 5414 5410 5403 5405 5405 5403 5408 5418 5431 5439 5432 5432 5408 5400 5393 5387 5383 5380 5376 5374 5374 5374 5374 5374 5375 5376 5379 5382 5385 5389 5393 5398 5404 5409 5414 5420 5425 5430 5435 5439 5444
5419 5421 5419 5409 5405 5408 5392 5388 5390 5396 5396 5412 5423 5434 5410 5397 5388 5381 5376 5370 5366 5364 5362 5361 5361 5361 5361 5362 5363 5367 5370 5373 5376 5381 5386 5392 5398 5403 5408 5413 5418 5423 5428 5433
5406 5410 5414 5408 5391 5384 5387 5387 5382 5390 5389 5381 5395 5410 5392 5381 5373 5367 5363 5359 5356 5354 5351 5350 5350 5350 5351 5351 5352 5354 5358 5361 5364 5368 5374 5380 5386 5392 5397 5402 5407 5412 5417 5421
5392 5393 5408 5414 5391 5371 5369 5367 5362 5361 5367 5374 5381 5402 5377 5368 5363 5358 5354 5351 5348 5344 5343 5341 5340 5339 5340 5340 5341 5343 5345 5349 5352 5357 5362 5368 5374 5381 5386 5391 5396 5400 5406 5410
5387 5385 5397 5414 5411 5387 5368 5360 5351 5350 5361 5372 5374 5387 5378 5367 5359 5351 5345 5341 5338 5335 5333 5333 5331 5330 5329 5330 5330 5332 5334 5337 5341 5346 5352 5358 5364 5370 5375 5380 5385 5389 5394 5400
5378 5381 5377 5380 5377 5369 5366 5362 5352 5345 5357 5362 5374 5368 5366 5356 5346 5339 5333 5329 5327 5326 5325 5323 5322 5321 5320 5320 5321 5322 5324 5327 5331 5336 5342 5348 5353 5359 5363 5369 5373 5377 5383 5388
5365 5365 5358 5362 5361 5355 5353 5357 5351 5344 5345 5346 5349 5351 5347 5338 5331 5326 5323 5318 5317 5316 5314 5313 5312 5310 5310 5309 5311 5312 5314 5317 5321 5326 5332 5337 5342 5347 5352 5357 5362 5366 5371 5376
5357 5349 5352 5371 5347 5343 5363 5361 5349 5343 5337 5337 5342 5345 5334 5326 5321 5316 5311 5309 5306 5304 5302 5301 5301 5299 5300 5300 5300 5303 5305 5308 5312 5317 5322 5327 5332 5337 5341 5346 5351 5356 5361 5365
5343 5342 5344 5351 5341 5351 5377 5343 5339 5335 5332 5326 5325 5323 5318 5312 5308 5302 5299 5298 5296 5293 5291 5291 5290 5289 5290 5290 5292 5294 5297 5300 5304 5308 5312 5317 5322 5327 5332 5336 5341 5346 5350 5354
5335 5335 5338 5337 5346 5362 5359 5335 5323 5319 5327 5320 5313 5310 5306 5299 5298 5303 5294 5287 5284 5282 5280 5279 5279 5279 5280 5282 5284 5286 5289 5292 5296 5300 5304 5308 5312 5316 5321 5326 5331 5336 5340 5343
5319 5319 5326 5324 5333 5349 5361 5323 5310 5309 5322 5314 5303 5299 5294 5288 5299 5305 5285 5276 5273 5271 5270 5270 5270 5270 5272 5274 5275 5278 5281 5284 5287 5290 5294 5298 5301 5305 5310 5315 5320 5324 5328 5332
5311 5309 5311 5317 5323 5340 5329 5305 5300 5314 5326 5301 5293 5288 5282 5280 5282 5277 5270 5266 5262 5261 5261 5260 5261 5262 5263 5264 5266 5269 5272 5275 5278 5281 5285 5289 5292 5296 5299 5304 5308 5312 5316 5321
5319 5314 5305 5307 5312 5328 5308 5296 5301 5309 5295 5287 5282 5276 5271 5268 5264 5261 5258 5256 5253 5252 5251 5251 5251 5253 5254 5255 5257 5260 5263 5266 5269 5273 5277 5281 5284 5286 5290 5293 5297 5300 5305 5310
5313 5316 5317 5311 5322 5311 5297 5295 5291 5284 5281 5277 5272 5265 5259 5256 5254 5252 5249 5247 5244 5242 5242 5241 5242 5243 5245 5246 5248 5251 5254 5257 5260 5264 5268 5271 5274 5277 5279 5282 5285 5289 5293 5298
5305 5292 5295 5296 5305 5297 5290 5284 5279 5273 5269 5265 5259 5253 5249 5245 5244 5242 5240 5238 5236 5234 5233 5232 5233 5235 5237 5238 5239 5241 5244 5247 5251 5255 5258 5261 5264 5267 5269 5271 5275 5278 5282 5286
5306 5287 5286 5287 5291 5285 5284 5278 5271 5263 5257 5252 5248 5243 5240 5237 5235 5232 5231 5229 5228 5227 5225 5225 5225 5227 5229 5230 5232 5234 5236 5238 5242 5246 5249 5252 5255 5257 5259 5261 5264 5267 5270 5274
5293 5286 5288 5297 5289 5280 5280 5270 5260 5253 5249 5244 5240 5236 5233 5229 5226 5224 5222 5221 5220 5219 5218 5218 5218 5220 5221 5223 5225 5227 5229 5231 5233 5237 5241 5243 5245 5247 5250 5252 5255 5257 5260 5264